Location: Newark
(52.5667°N, 8.8000°W)
Time: 10:31:09
(UTC+00:00)

N. Korean satellite - Pass Details

Date: 24 January 2020
Orbit: 456 x 505 km, 97.2° (Epoch: 22 February)

Event Time Altitude Azimuth Distance (km) Brightness Sun altitude
Rises 06:06:42 0° 19° (NNE) 2,529 10.4 -21.3°
Reaches altitude 10° 06:08:50 10° 27° (NNE) 1,654 9.5 -21.0°
Maximum altitude 06:12:12 40° 98° (E) 719 7.9 -20.5°
Drops below altitude 10° 06:15:37 10° 170° (S) 1,667 9.5 -20.0°
Sets 06:17:46 0° 178° (S) 2,552 10.3 -19.6°
